EW5833 Weather Reports


Display with metric or nautical units.
time (UTC)temp
F
wind
direction
speed
MPH
gust
MPH
rain 1hr
in
rain 24hr
in
rain mn
in
humidity
%
barometer
mb
20260504181300 76 210 3.0 11.0 0.00 0.00 0.00 33 1000.2
20260504180300 75 148 3.0 11.0 0.00 0.00 0.00 33 1000.5
20260504180230 74 217 4.0 10.0 0.00 0.00 0.00 34 1000.5
20260504175300 74 217 4.0 10.0 0.00 0.00 0.00 34 1000.5
20260504174744 74 96 4.0 8.0 0.00 0.00 0.00 35 1000.8
20260504174301 74 96 4.0 8.0 0.00 0.00 0.00 35 1000.8
20260504173740 75 158 3.0 11.0 0.00 0.00 0.00 34 1000.9
20260504173513 75 158 3.0 11.0 0.00 0.00 0.00 34 1000.9
20260504172733 75 243 3.0 10.0 0.00 0.00 0.00 31 1001.2
20260504172513 75 243 3.0 10.0 0.00 0.00 0.00 31 1001.2
20260504171303 74 255 4.0 11.0 0.00 0.00 0.00 33 1001.2
20260504170735 74 166 3.0 8.0 0.00 0.00 0.00 34 1001.3
20260504170513 74 166 3.0 8.0 0.00 0.00 0.00 34 1001.3
20260504160301 70 217 3.0 8.0 0.00 0.00 0.00 46 1002.5
20260504150302 65 214 3.0 8.0 0.00 0.01 0.00 53 1002.8
20260504141302 63 150 2.0 6.0 0.00 0.01 0.00 59 1003.0
20260504140302 62 223 2.0 6.0 0.00 0.01 0.00 60 1003.0
20260504130302 56 194 2.0 9.0 0.00 0.01 0.00 68 1003.4
20260504110513 48 206 1.0 2.0 0.00 0.00 0.00 79 1003.4
20260504100302 48 231 1.0 3.0 0.00 0.00 0.00 78 1003.4
20260504081754 49 221 1.0 3.0 0.00 0.00 0.00 74 1004.2
20260504081303 49 221 1.0 3.0 0.00 0.00 0.00 74 1004.2
20260504080302 49 214 2.0 5.0 0.00 0.00 0.00 73 1004.2
20260504070301 49 214 2.0 5.0 0.00 0.00 0.00 72 1004.9
20260504050302 51 200 2.0 7.0 0.00 0.00 0.00 67 1006.5
20260504045304 51 154 2.0 8.0 0.00 0.00 0.00 67 1006.5
20260504044745 51 190 2.0 8.0 0.00 0.00 0.00 65 1006.5
20260504044513 51 190 2.0 8.0 0.00 0.00 0.00 65 1006.5
20260504043301 51 0 2.0 9.0 0.00 0.00 0.00 66 1006.6
20260504043221 51 0 3.0 9.0 0.00 0.00 0.00 65 1006.7
20260504042512 51 0 3.0 9.0 0.00 0.00 0.00 65 1006.7
20260504042213 51 160 3.0 9.0 0.00 0.00 0.00 65 1006.9
20260504041512 51 160 3.0 9.0 0.00 0.00 0.00 65 1006.9
20260504040301 51 200 2.0 9.0 0.00 0.00 0.00 65 1007.0
20260504035304 51 145 2.0 9.0 0.00 0.00 0.00 66 1007.1
20260504035237 51 0 2.0 8.0 0.00 0.00 0.00 65 1007.1
20260504034302 51 0 2.0 8.0 0.00 0.00 0.00 65 1007.1
20260504033301 51 121 2.0 7.0 0.00 0.00 0.00 65 1007.2
20260504032303 52 178 2.0 8.0 0.00 0.00 0.00 65 1007.2
20260504032232 52 191 3.0 8.0 0.00 0.00 0.00 64 1007.2
20260504031302 52 191 3.0 8.0 0.00 0.00 0.00 64 1007.2
20260504030303 52 176 3.0 8.0 0.00 0.00 0.00 63 1007.2
20260504025301 52 144 2.0 7.0 0.00 0.00 0.00 63 1007.3
20260504024754 52 239 2.0 8.0 0.00 0.00 0.00 63 1007.6
20260504024301 52 239 2.0 8.0 0.00 0.00 0.00 63 1007.6
20260504023302 53 0 2.0 10.0 0.00 0.00 0.00 63 1007.6
20260504022306 53 320 2.0 6.0 0.00 0.00 0.00 63 1007.7
20260504021303 53 151 2.0 7.0 0.00 0.00 0.00 62 1007.7
20260504020300 53 212 2.0 10.0 0.00 0.00 0.00 62 1007.8
20260504015305 53 167 1.0 4.0 0.00 0.00 0.00 62 1007.8
20260504014303 53 271 1.0 3.0 0.00 0.00 0.00 62 1007.7
20260504013302 53 80 2.0 5.0 0.00 0.00 0.00 61 1007.6
20260504012304 53 222 1.0 5.0 0.00 0.00 0.00 61 1007.6
20260504011303 54 215 2.0 5.0 0.00 0.00 0.00 59 1007.7
20260504010302 54 110 2.0 4.0 0.00 0.00 0.00 59 1007.7
20260504005759 55 253 2.0 6.0 0.00 0.00 0.00 58 1007.6
20260504005304 55 253 2.0 6.0 0.00 0.00 0.00 58 1007.6
20260504004751 55 161 3.0 9.0 0.00 0.00 0.00 56 1007.5
20260504004303 55 161 3.0 9.0 0.00 0.00 0.00 56 1007.5
20260504004236 56 192 2.0 6.0 0.00 0.00 0.00 55 1007.4
20260504003302 56 192 2.0 6.0 0.00 0.00 0.00 55 1007.4
20260504002304 56 235 2.0 6.0 0.00 0.00 0.00 53 1007.3